Time,TemperatureF,DewpointF,PressureIn,WindDirection,WindDirectionDegrees,WindSpeedMPH,WindSpeedGustMPH,Humidity,HourlyPrecipIn,Conditions,Clouds,dailyrainin,SoftwareType,DateUTC
2013-02-18 00:02:00,36.8,34.4,30.06,NW,306,3.0,3.0,91,0.00,,,0.00,Wunderground v.1.15,2013-02-18 08:02:00,
2013-02-18 00:08:00,36.5,34.1,30.06,NW,306,1.0,3.0,91,0.00,,,0.00,Wunderground v.1.15,2013-02-18 08:08:00,
2013-02-18 00:14:00,36.4,34.3,30.05,NW,306,1.0,2.0,92,0.00,,,0.00,Wunderground v.1.15,2013-02-18 08:14:00,
2013-02-18 00:20:00,36.3,34.2,30.05,NW,306,2.0,2.0,92,0.00,,,0.00,Wunderground v.1.15,2013-02-18 08:20:00,
2013-02-18 00:26:00,36.2,34.1,30.05,NW,306,2.0,2.0,92,0.00,,,0.00,Wunderground v.1.15,2013-02-18 08:26:00,
2013-02-18 00:32:00,36.1,34.0,30.05,NW,306,1.0,1.0,92,0.00,,,0.00,Wunderground v.1.15,2013-02-18 08:32:00,
2013-02-18 00:38:00,36.1,34.0,30.05,NW,306,0.0,1.0,92,0.00,,,0.00,Wunderground v.1.15,2013-02-18 08:38:00,
2013-02-18 00:44:00,36.1,34.0,30.04,NW,306,0.0,1.0,92,0.00,,,0.00,Wunderground v.1.15,2013-02-18 08:44:00,
2013-02-18 00:50:00,36.3,34.2,30.04,NW,306,1.0,1.0,92,0.00,,,0.00,Wunderground v.1.15,2013-02-18 08:50:00,
2013-02-18 00:56:00,36.2,34.1,30.04,NW,306,1.0,3.0,92,0.00,,,0.00,Wunderground v.1.15,2013-02-18 08:56:00,
2013-02-18 01:02:00,36.2,34.1,30.04,NW,307,2.0,3.0,92,0.00,,,0.00,Wunderground v.1.15,2013-02-18 09:02:00,
2013-02-18 01:08:00,36.2,34.1,30.04,NW,310,3.0,4.0,92,0.00,,,0.00,Wunderground v.1.15,2013-02-18 09:08:00,
2013-02-18 01:14:00,36.2,34.1,30.04,NW,310,1.0,4.0,92,0.00,,,0.00,Wunderground v.1.15,2013-02-18 09:14:00,
2013-02-18 01:20:00,36.2,34.1,30.03,NW,310,2.0,2.0,92,0.00,,,0.00,Wunderground v.1.15,2013-02-18 09:20:00,
2013-02-18 01:26:00,36.2,34.1,30.03,NW,310,1.0,2.0,92,0.00,,,0.00,Wunderground v.1.15,2013-02-18 09:26:00,
2013-02-18 01:32:00,36.2,34.1,30.03,NW,310,0.0,2.0,92,0.00,,,0.00,Wunderground v.1.15,2013-02-18 09:32:00,
2013-02-18 01:38:00,36.2,34.1,30.03,NW,309,1.0,2.0,92,0.00,,,0.00,Wunderground v.1.15,2013-02-18 09:38:00,
2013-02-18 01:44:00,36.2,34.1,30.02,NW,309,1.0,1.0,92,0.00,,,0.00,Wunderground v.1.15,2013-02-18 09:44:00,
2013-02-18 01:50:00,36.3,34.2,30.02,NW,309,1.0,2.0,92,0.00,,,0.00,Wunderground v.1.15,2013-02-18 09:50:00,
2013-02-18 01:56:00,36.2,34.1,30.02,NW,309,1.0,2.0,92,0.00,,,0.00,Wunderground v.1.15,2013-02-18 09:56:00,
2013-02-18 02:02:00,36.1,34.0,30.02,NW,309,1.0,2.0,92,0.00,,,0.00,Wunderground v.1.15,2013-02-18 10:02:00,
2013-02-18 02:08:00,36.2,34.1,30.02,NW,309,2.0,2.0,92,0.00,,,0.00,Wunderground v.1.15,2013-02-18 10:08:00,
2013-02-18 02:14:00,36.1,34.0,30.02,NW,309,2.0,3.0,92,0.00,,,0.00,Wunderground v.1.15,2013-02-18 10:14:00,
2013-02-18 02:20:00,36.1,34.0,30.02,NW,309,2.0,2.0,92,0.00,,,0.00,Wunderground v.1.15,2013-02-18 10:20:00,
2013-02-18 02:26:00,36.1,34.0,30.02,NW,309,1.0,2.0,92,0.00,,,0.00,Wunderground v.1.15,2013-02-18 10:26:00,
2013-02-18 02:32:00,36.0,33.9,30.01,NW,309,1.0,1.0,92,0.00,,,0.00,Wunderground v.1.15,2013-02-18 10:32:00,
2013-02-18 02:38:00,35.9,33.8,30.01,NW,309,0.0,1.0,92,0.00,,,0.00,Wunderground v.1.15,2013-02-18 10:38:00,
2013-02-18 02:44:00,35.9,33.8,30.01,NW,309,0.0,0.0,92,0.00,,,0.00,Wunderground v.1.15,2013-02-18 10:44:00,
2013-02-18 02:50:00,35.9,33.8,30.01,NW,310,0.0,0.0,92,0.00,,,0.00,Wunderground v.1.15,2013-02-18 10:50:00,
2013-02-18 02:56:00,35.9,33.8,30.00,NW,309,0.0,1.0,92,0.00,,,0.00,Wunderground v.1.15,2013-02-18 10:56:00,
2013-02-18 03:02:00,36.0,33.9,30.00,NW,309,0.0,1.0,92,0.00,,,0.00,Wunderground v.1.15,2013-02-18 11:02:00,
2013-02-18 03:08:00,35.9,33.8,30.00,NW,309,0.0,2.0,92,0.00,,,0.00,Wunderground v.1.15,2013-02-18 11:08:00,
2013-02-18 03:14:00,35.9,33.8,30.00,NW,310,1.0,2.0,92,0.00,,,0.00,Wunderground v.1.15,2013-02-18 11:14:00,
2013-02-18 03:20:00,35.9,33.8,30.00,NW,309,1.0,1.0,92,0.00,,,0.00,Wunderground v.1.15,2013-02-18 11:20:00,
2013-02-18 03:26:00,35.9,33.8,30.00,NW,309,1.0,1.0,92,0.00,,,0.00,Wunderground v.1.15,2013-02-18 11:26:00,
2013-02-18 03:32:00,35.8,33.7,29.99,NW,310,0.0,0.0,92,0.00,,,0.00,Wunderground v.1.15,2013-02-18 11:32:00,
2013-02-18 03:38:00,35.7,33.6,29.99,NW,310,0.0,2.0,92,0.00,,,0.00,Wunderground v.1.15,2013-02-18 11:38:00,
2013-02-18 03:44:00,35.7,33.6,29.99,NW,309,1.0,2.0,92,0.00,,,0.00,Wunderground v.1.15,2013-02-18 11:44:00,
2013-02-18 03:50:00,35.5,33.4,29.99,NW,309,2.0,2.0,92,0.00,,,0.00,Wunderground v.1.15,2013-02-18 11:50:00,
2013-02-18 03:56:00,35.5,33.4,29.99,NW,310,1.0,2.0,92,0.00,,,0.00,Wunderground v.1.15,2013-02-18 11:56:00,
2013-02-18 04:02:00,35.5,33.4,29.98,NW,309,0.0,0.0,92,0.00,,,0.00,Wunderground v.1.15,2013-02-18 12:02:00,
2013-02-18 04:08:00,35.3,33.2,29.98,NW,309,0.0,1.0,92,0.00,,,0.00,Wunderground v.1.15,2013-02-18 12:08:00,
2013-02-18 04:14:00,35.3,33.2,29.97,NW,309,1.0,1.0,92,0.00,,,0.00,Wunderground v.1.15,2013-02-18 12:14:00,
2013-02-18 04:20:00,35.2,33.1,29.97,NW,310,0.0,0.0,92,0.00,,,0.00,Wunderground v.1.15,2013-02-18 12:20:00,
2013-02-18 04:26:00,35.2,33.1,29.97,NW,310,0.0,0.0,92,0.00,,,0.00,Wunderground v.1.15,2013-02-18 12:26:00,
2013-02-18 04:32:00,35.0,32.9,29.97,NW,309,0.0,0.0,92,0.00,,,0.00,Wunderground v.1.15,2013-02-18 12:32:00,
2013-02-18 04:38:00,35.0,32.9,29.97,NW,309,0.0,1.0,92,0.00,,,0.00,Wunderground v.1.15,2013-02-18 12:38:00,
2013-02-18 04:44:00,35.2,33.1,29.97,NW,309,0.0,1.0,92,0.00,,,0.00,Wunderground v.1.15,2013-02-18 12:44:00,
2013-02-18 04:50:00,35.2,33.1,29.97,NW,309,0.0,0.0,92,0.00,,,0.00,Wunderground v.1.15,2013-02-18 12:50:00,
2013-02-18 04:56:00,35.2,33.1,29.97,NW,309,0.0,1.0,92,0.00,,,0.00,Wunderground v.1.15,2013-02-18 12:56:00,
2013-02-18 05:02:00,35.1,33.0,29.97,NW,309,0.0,1.0,92,0.00,,,0.00,Wunderground v.1.15,2013-02-18 13:02:00,
2013-02-18 05:08:00,35.0,33.2,29.97,NW,310,1.0,1.0,93,0.00,,,0.00,Wunderground v.1.15,2013-02-18 13:08:00,
2013-02-18 05:14:00,34.9,33.1,29.97,NW,309,0.0,1.0,93,0.00,,,0.00,Wunderground v.1.15,2013-02-18 13:14:00,
2013-02-18 05:20:00,34.8,33.0,29.97,NW,309,0.0,1.0,93,0.00,,,0.00,Wunderground v.1.15,2013-02-18 13:20:00,
2013-02-18 05:26:00,34.6,32.5,29.97,NW,309,1.0,1.0,92,0.00,,,0.00,Wunderground v.1.15,2013-02-18 13:26:00,
2013-02-18 05:32:00,34.4,32.3,29.97,NW,309,1.0,1.0,92,0.00,,,0.00,Wunderground v.1.15,2013-02-18 13:32:00,
2013-02-18 05:38:00,34.4,32.6,29.97,NW,310,0.0,1.0,93,0.00,,,0.00,Wunderground v.1.15,2013-02-18 13:38:00,
2013-02-18 05:44:00,34.4,32.3,29.97,NW,309,0.0,1.0,92,0.00,,,0.00,Wunderground v.1.15,2013-02-18 13:44:00,
2013-02-18 05:50:00,34.3,32.5,29.97,NW,309,1.0,1.0,93,0.00,,,0.00,Wunderground v.1.15,2013-02-18 13:50:00,
2013-02-18 05:56:00,34.2,32.4,29.96,NW,310,1.0,1.0,93,0.00,,,0.00,Wunderground v.1.15,2013-02-18 13:56:00,
2013-02-18 06:02:00,34.2,32.4,29.97,NW,309,0.0,2.0,93,0.00,,,0.00,Wunderground v.1.15,2013-02-18 14:02:00,
2013-02-18 06:08:00,34.2,32.4,29.97,NW,310,1.0,2.0,93,0.00,,,0.00,Wunderground v.1.15,2013-02-18 14:08:00,
2013-02-18 06:14:00,34.3,32.5,29.97,NW,310,2.0,2.0,93,0.00,,,0.00,Wunderground v.1.15,2013-02-18 14:14:00,
2013-02-18 06:22:00,34.3,32.5,29.97,NW,310,2.0,2.0,93,0.00,,,0.00,Wunderground v.1.15,2013-02-18 14:22:00,
2013-02-18 06:28:00,34.2,32.4,29.97,NW,309,2.0,2.0,93,0.00,,,0.00,Wunderground v.1.15,2013-02-18 14:28:00,
2013-02-18 06:34:00,34.0,32.2,29.97,NW,309,2.0,2.0,93,0.00,,,0.00,Wunderground v.1.15,2013-02-18 14:34:00,
2013-02-18 06:40:00,33.9,32.1,29.96,NW,309,1.0,1.0,93,0.00,,,0.00,Wunderground v.1.15,2013-02-18 14:40:00,
2013-02-18 06:46:00,33.8,32.0,29.96,NW,309,0.0,1.0,93,0.00,,,0.00,Wunderground v.1.15,2013-02-18 14:46:00,
2013-02-18 06:52:00,33.7,31.9,29.97,NW,309,1.0,1.0,93,0.00,,,0.00,Wunderground v.1.15,2013-02-18 14:52:00,
2013-02-18 06:58:00,33.6,31.8,29.97,NW,309,0.0,1.0,93,0.00,,,0.00,Wunderground v.1.15,2013-02-18 14:58:00,
2013-02-18 07:04:00,33.6,31.8,29.97,NW,310,0.0,0.0,93,0.00,,,0.00,Wunderground v.1.15,2013-02-18 15:04:00,
2013-02-18 07:10:00,33.5,31.7,29.97,NW,310,0.0,0.0,93,0.00,,,0.00,Wunderground v.1.15,2013-02-18 15:10:00,
2013-02-18 07:16:00,33.5,31.7,29.97,NW,309,0.0,0.0,93,0.00,,,0.00,Wunderground v.1.15,2013-02-18 15:16:00,
2013-02-18 07:22:00,33.5,31.7,29.97,NW,310,0.0,0.0,93,0.00,,,0.00,Wunderground v.1.15,2013-02-18 15:22:00,
2013-02-18 07:28:00,33.6,31.8,29.97,NW,309,0.0,0.0,93,0.00,,,0.00,Wunderground v.1.15,2013-02-18 15:28:00,
2013-02-18 07:34:00,33.8,32.0,29.97,NW,309,0.0,0.0,93,0.00,,,0.00,Wunderground v.1.15,2013-02-18 15:34:00,
2013-02-18 07:40:00,34.0,32.2,29.97,NW,309,0.0,0.0,93,0.00,,,0.00,Wunderground v.1.15,2013-02-18 15:40:00,
2013-02-18 07:46:00,34.3,32.5,29.97,NW,309,0.0,0.0,93,0.00,,,0.00,Wunderground v.1.15,2013-02-18 15:46:00,
2013-02-18 07:52:00,34.4,32.6,29.97,NW,309,0.0,0.0,93,0.00,,,0.00,Wunderground v.1.15,2013-02-18 15:52:00,
2013-02-18 07:58:00,34.4,32.6,29.97,NW,309,0.0,0.0,93,0.00,,,0.00,Wunderground v.1.15,2013-02-18 15:58:00,
2013-02-18 08:04:00,34.6,32.8,29.97,NW,309,0.0,1.0,93,0.00,,,0.00,Wunderground v.1.15,2013-02-18 16:04:00,
2013-02-18 08:10:00,34.8,33.0,29.97,NW,309,0.0,0.0,93,0.00,,,0.00,Wunderground v.1.15,2013-02-18 16:10:00,
2013-02-18 08:16:00,34.9,33.1,29.97,NW,309,0.0,0.0,93,0.00,,,0.00,Wunderground v.1.15,2013-02-18 16:16:00,
2013-02-18 08:22:00,35.1,33.3,29.97,NW,309,0.0,0.0,93,0.00,,,0.00,Wunderground v.1.15,2013-02-18 16:22:00,
2013-02-18 08:28:00,35.3,33.5,29.97,NW,309,0.0,1.0,93,0.00,,,0.00,Wunderground v.1.15,2013-02-18 16:28:00,
2013-02-18 08:34:00,35.6,33.8,29.97,NW,309,0.0,0.0,93,0.00,,,0.00,Wunderground v.1.15,2013-02-18 16:34:00,
2013-02-18 08:40:00,35.7,33.9,29.97,NW,309,0.0,1.0,93,0.00,,,0.00,Wunderground v.1.15,2013-02-18 16:40:00,
2013-02-18 08:46:00,35.9,34.1,29.97,NW,309,0.0,1.0,93,0.00,,,0.00,Wunderground v.1.15,2013-02-18 16:46:00,
2013-02-18 08:52:00,35.9,34.1,29.98,NW,309,0.0,1.0,93,0.00,,,0.00,Wunderground v.1.15,2013-02-18 16:52:00,
2013-02-18 08:58:00,36.0,34.2,29.98,NW,309,0.0,1.0,93,0.00,,,0.00,Wunderground v.1.15,2013-02-18 16:58:00,
2013-02-18 09:04:00,36.2,34.4,29.97,NW,309,0.0,1.0,93,0.00,,,0.00,Wunderground v.1.15,2013-02-18 17:04:00,
2013-02-18 09:10:00,36.1,34.3,29.97,NW,309,1.0,1.0,93,0.00,,,0.00,Wunderground v.1.15,2013-02-18 17:10:00,
2013-02-18 09:16:00,36.2,34.4,29.97,NW,309,1.0,1.0,93,0.00,,,0.00,Wunderground v.1.15,2013-02-18 17:16:00,
2013-02-18 09:22:00,36.4,34.6,29.97,NW,310,0.0,1.0,93,0.00,,,0.00,Wunderground v.1.15,2013-02-18 17:22:00,
2013-02-18 09:28:00,36.3,34.5,29.97,NW,309,1.0,3.0,93,0.00,,,0.00,Wunderground v.1.15,2013-02-18 17:28:00,
2013-02-18 09:34:00,36.3,34.5,29.97,NW,310,1.0,1.0,93,0.00,,,0.00,Wunderground v.1.15,2013-02-18 17:34:00,
2013-02-18 09:40:00,36.5,34.9,29.97,NW,309,0.0,0.0,94,0.00,,,0.00,Wunderground v.1.15,2013-02-18 17:40:00,
2013-02-18 09:46:00,36.6,34.8,29.97,NW,310,1.0,1.0,93,0.00,,,0.00,Wunderground v.1.15,2013-02-18 17:46:00,
2013-02-18 09:52:00,36.6,34.8,29.97,NW,309,1.0,2.0,93,0.00,,,0.00,Wunderground v.1.15,2013-02-18 17:52:00,
2013-02-18 09:58:00,36.6,34.8,29.96,NW,309,1.0,2.0,93,0.00,,,0.00,Wunderground v.1.15,2013-02-18 17:58:00,
2013-02-18 10:04:00,36.8,35.0,29.96,NW,309,1.0,1.0,93,0.00,,,0.00,Wunderground v.1.15,2013-02-18 18:04:00,
2013-02-18 10:10:00,36.9,35.1,29.96,NW,310,1.0,1.0,93,0.00,,,0.00,Wunderground v.1.15,2013-02-18 18:10:00,
2013-02-18 10:16:00,36.9,35.1,29.96,NW,309,2.0,2.0,93,0.00,,,0.00,Wunderground v.1.15,2013-02-18 18:16:00,
2013-02-18 10:22:00,36.9,35.1,29.96,NW,307,2.0,2.0,93,0.00,,,0.00,Wunderground v.1.15,2013-02-18 18:22:00,
2013-02-18 10:28:00,37.0,35.2,29.96,NW,306,1.0,2.0,93,0.00,,,0.00,Wunderground v.1.15,2013-02-18 18:28:00,
2013-02-18 10:34:00,37.1,35.5,29.96,NW,306,1.0,3.0,94,0.00,,,0.00,Wunderground v.1.15,2013-02-18 18:34:00,
2013-02-18 10:40:00,37.5,35.9,29.95,NW,309,1.0,1.0,94,0.00,,,0.00,Wunderground v.1.15,2013-02-18 18:40:00,
2013-02-18 10:46:00,37.7,36.1,29.95,NW,308,1.0,1.0,94,0.00,,,0.00,Wunderground v.1.15,2013-02-18 18:46:00,
2013-02-18 10:52:00,37.8,36.2,29.95,NW,307,1.0,1.0,94,0.00,,,0.00,Wunderground v.1.15,2013-02-18 18:52:00,
2013-02-18 10:58:00,38.1,36.5,29.95,SE,141,1.0,2.0,94,0.00,,,0.00,Wunderground v.1.15,2013-02-18 18:58:00,
2013-02-18 11:04:00,38.2,36.4,29.95,SE,128,2.0,3.0,93,0.00,,,0.00,Wunderground v.1.15,2013-02-18 19:04:00,
2013-02-18 11:10:00,38.8,36.9,29.95,SE,134,2.0,2.0,93,0.00,,,0.00,Wunderground v.1.15,2013-02-18 19:10:00,
2013-02-18 11:16:00,39.2,37.1,29.95,SE,137,2.0,2.0,92,0.00,,,0.00,Wunderground v.1.15,2013-02-18 19:16:00,
2013-02-18 11:22:00,39.5,36.8,29.95,SE,134,1.0,4.0,90,0.00,,,0.00,Wunderground v.1.15,2013-02-18 19:22:00,
2013-02-18 11:28:00,39.6,36.6,29.94,SE,133,2.0,4.0,89,0.00,,,0.00,Wunderground v.1.15,2013-02-18 19:28:00,
2013-02-18 11:34:00,39.7,36.4,29.94,SE,126,2.0,3.0,88,0.00,,,0.00,Wunderground v.1.15,2013-02-18 19:34:00,
2013-02-18 11:40:00,40.6,37.0,29.94,SSE,161,2.0,2.0,87,0.00,,,0.00,Wunderground v.1.15,2013-02-18 19:40:00,
2013-02-18 11:46:00,41.2,37.3,29.94,South,175,1.0,2.0,86,0.00,,,0.00,Wunderground v.1.15,2013-02-18 19:46:00,
2013-02-18 11:52:00,41.6,37.1,29.94,South,175,1.0,2.0,84,0.00,,,0.00,Wunderground v.1.15,2013-02-18 19:52:00,
2013-02-18 11:58:00,41.7,36.9,29.93,SE,141,2.0,6.0,83,0.00,,,0.00,Wunderground v.1.15,2013-02-18 19:58:00,
2013-02-18 12:04:00,41.8,36.4,29.93,ESE,121,2.0,5.0,81,0.00,,,0.00,Wunderground v.1.15,2013-02-18 20:04:00,
2013-02-18 12:10:00,41.8,36.4,29.93,SSW,196,4.0,6.0,81,0.00,,,0.00,Wunderground v.1.15,2013-02-18 20:10:00,
2013-02-18 12:16:00,42.0,36.6,29.93,SSE,148,4.0,6.0,81,0.00,,,0.00,Wunderground v.1.15,2013-02-18 20:16:00,
2013-02-18 12:22:00,42.2,36.2,29.93,SE,132,3.0,5.0,79,0.00,,,0.00,Wunderground v.1.15,2013-02-18 20:22:00,
2013-02-18 12:28:00,42.1,36.4,29.93,ESE,122,4.0,5.0,80,0.00,,,0.00,Wunderground v.1.15,2013-02-18 20:28:00,
2013-02-18 12:34:00,42.5,36.4,29.92,ESE,123,4.0,5.0,79,0.00,,,0.00,Wunderground v.1.15,2013-02-18 20:34:00,
2013-02-18 12:40:00,42.9,36.5,29.92,SSE,153,3.0,4.0,78,0.00,,,0.00,Wunderground v.1.15,2013-02-18 20:40:00,
2013-02-18 12:46:00,42.9,36.5,29.92,SSE,153,4.0,7.0,78,0.00,,,0.00,Wunderground v.1.15,2013-02-18 20:46:00,
2013-02-18 12:52:00,43.5,37.1,29.92,SSW,198,3.0,3.0,78,0.00,,,0.00,Wunderground v.1.15,2013-02-18 20:52:00,
2013-02-18 12:58:00,43.6,36.5,29.91,SSE,163,2.0,7.0,76,0.00,,,0.00,Wunderground v.1.15,2013-02-18 20:58:00,
2013-02-18 13:04:00,43.5,36.8,29.91,SSE,165,3.0,3.0,77,0.00,,,0.00,Wunderground v.1.15,2013-02-18 21:04:00,
2013-02-18 13:10:00,43.4,36.7,29.91,SE,133,2.0,4.0,77,0.00,,,0.00,Wunderground v.1.15,2013-02-18 21:10:00,
2013-02-18 13:16:00,43.6,36.5,29.90,ESE,123,3.0,4.0,76,0.00,,,0.00,Wunderground v.1.15,2013-02-18 21:16:00,
2013-02-18 13:22:00,43.5,36.8,29.90,SE,128,4.0,5.0,77,0.00,,,0.00,Wunderground v.1.15,2013-02-18 21:22:00,
2013-02-18 13:28:00,43.6,36.5,29.90,ESE,119,5.0,6.0,76,0.00,,,0.00,Wunderground v.1.15,2013-02-18 21:28:00,
2013-02-18 13:34:00,43.7,36.6,29.90,SE,140,5.0,5.0,76,0.00,,,0.00,Wunderground v.1.15,2013-02-18 21:34:00,
2013-02-18 13:40:00,44.0,36.2,29.89,SE,132,4.0,4.0,74,0.00,,,0.00,Wunderground v.1.15,2013-02-18 21:40:00,
2013-02-18 13:46:00,44.2,36.4,29.89,SSE,150,4.0,9.0,74,0.00,,,0.00,Wunderground v.1.15,2013-02-18 21:46:00,
2013-02-18 13:52:00,44.1,36.3,29.89,SE,137,3.0,5.0,74,0.00,,,0.00,Wunderground v.1.15,2013-02-18 21:52:00,
2013-02-18 13:58:00,44.0,36.2,29.89,SE,132,3.0,5.0,74,0.00,,,0.00,Wunderground v.1.15,2013-02-18 21:58:00,
2013-02-18 14:04:00,44.5,36.4,29.89,SE,144,2.0,5.0,73,0.00,,,0.00,Wunderground v.1.15,2013-02-18 22:04:00,
2013-02-18 14:10:00,44.9,36.8,29.88,ESE,110,2.0,5.0,73,0.00,,,0.00,Wunderground v.1.15,2013-02-18 22:10:00,
2013-02-18 14:16:00,45.6,37.1,29.88,SE,126,3.0,5.0,72,0.00,,,0.00,Wunderground v.1.15,2013-02-18 22:16:00,
2013-02-18 14:22:00,45.7,36.1,29.88,ESE,105,3.0,5.0,69,0.00,,,0.00,Wunderground v.1.15,2013-02-18 22:22:00,
2013-02-18 14:28:00,45.0,36.2,29.88,ESE,109,4.0,7.0,71,0.00,,,0.00,Wunderground v.1.15,2013-02-18 22:28:00,
2013-02-18 14:34:00,44.9,35.7,29.87,ESE,122,5.0,7.0,70,0.00,,,0.00,Wunderground v.1.15,2013-02-18 22:34:00,
2013-02-18 14:40:00,44.7,35.9,29.87,ESE,122,5.0,5.0,71,0.00,,,0.00,Wunderground v.1.15,2013-02-18 22:40:00,
2013-02-18 14:46:00,44.9,36.1,29.87,ESE,123,3.0,5.0,71,0.00,,,0.00,Wunderground v.1.15,2013-02-18 22:46:00,
2013-02-18 14:52:00,45.2,36.0,29.87,ESE,111,3.0,7.0,70,0.00,,,0.00,Wunderground v.1.15,2013-02-18 22:52:00,
2013-02-18 14:58:00,45.4,35.8,29.87,SSE,157,4.0,7.0,69,0.00,,,0.00,Wunderground v.1.15,2013-02-18 22:58:00,
2013-02-18 15:04:00,45.4,35.5,29.86,SSE,160,4.0,5.0,68,0.00,,,0.00,Wunderground v.1.15,2013-02-18 23:04:00,
2013-02-18 15:10:00,45.5,35.5,29.86,SE,128,3.0,4.0,68,0.00,,,0.00,Wunderground v.1.15,2013-02-18 23:10:00,
2013-02-18 15:16:00,45.3,35.4,29.86,SE,130,4.0,5.0,68,0.00,,,0.00,Wunderground v.1.15,2013-02-18 23:16:00,
2013-02-18 15:22:00,45.4,35.8,29.85,SE,136,3.0,4.0,69,0.00,,,0.00,Wunderground v.1.15,2013-02-18 23:22:00,
2013-02-18 15:28:00,45.4,35.8,29.85,SE,127,3.0,4.0,69,0.00,,,0.00,Wunderground v.1.15,2013-02-18 23:28:00,
2013-02-18 15:34:00,45.2,35.6,29.85,ESE,123,4.0,6.0,69,0.00,,,0.00,Wunderground v.1.15,2013-02-18 23:34:00,
2013-02-18 15:40:00,45.2,36.0,29.85,SE,130,4.0,4.0,70,0.00,,,0.00,Wunderground v.1.15,2013-02-18 23:40:00,
2013-02-18 15:46:00,45.2,35.6,29.85,SE,138,3.0,7.0,69,0.00,,,0.00,Wunderground v.1.15,2013-02-18 23:46:00,
2013-02-18 15:52:00,45.2,35.6,29.85,SE,132,3.0,4.0,69,0.00,,,0.00,Wunderground v.1.15,2013-02-18 23:52:00,
2013-02-18 15:58:00,45.2,36.0,29.84,SE,136,3.0,5.0,70,0.00,,,0.00,Wunderground v.1.15,2013-02-18 23:58:00,
2013-02-18 16:04:00,45.2,36.0,29.84,SE,132,3.0,3.0,70,0.00,,,0.00,Wunderground v.1.15,2013-02-19 00:04:00,
2013-02-18 16:10:00,45.3,36.1,29.84,SE,128,3.0,3.0,70,0.00,,,0.00,Wunderground v.1.15,2013-02-19 00:10:00,
2013-02-18 16:16:00,45.3,36.1,29.83,SE,128,3.0,4.0,70,0.00,,,0.00,Wunderground v.1.15,2013-02-19 00:16:00,
2013-02-18 16:22:00,45.3,36.1,29.83,ESE,123,3.0,3.0,70,0.00,,,0.00,Wunderground v.1.15,2013-02-19 00:22:00,
2013-02-18 16:28:00,45.4,36.2,29.83,ESE,117,2.0,4.0,70,0.00,,,0.00,Wunderground v.1.15,2013-02-19 00:28:00,
2013-02-18 16:34:00,45.4,36.2,29.83,ESE,117,2.0,2.0,70,0.00,,,0.00,Wunderground v.1.15,2013-02-19 00:34:00,
2013-02-18 16:40:00,45.4,36.2,29.83,ESE,117,2.0,2.0,70,0.00,,,0.00,Wunderground v.1.15,2013-02-19 00:40:00,
2013-02-18 16:46:00,45.3,36.1,29.82,ESE,117,2.0,2.0,70,0.00,,,0.00,Wunderground v.1.15,2013-02-19 00:46:00,
2013-02-18 16:52:00,45.3,36.1,29.82,SSE,165,2.0,2.0,70,0.00,,,0.00,Wunderground v.1.15,2013-02-19 00:52:00,
2013-02-18 16:58:00,45.3,36.1,29.82,SE,134,2.0,3.0,70,0.00,,,0.00,Wunderground v.1.15,2013-02-19 00:58:00,
2013-02-18 17:04:00,45.3,36.1,29.82,SE,134,1.0,2.0,70,0.00,,,0.00,Wunderground v.1.15,2013-02-19 01:04:00,
2013-02-18 17:10:00,45.3,35.7,29.81,SE,135,2.0,2.0,69,0.00,,,0.00,Wunderground v.1.15,2013-02-19 01:10:00,
2013-02-18 17:16:00,45.2,36.0,29.81,SE,133,2.0,3.0,70,0.00,,,0.00,Wunderground v.1.15,2013-02-19 01:16:00,
2013-02-18 17:22:00,45.2,36.0,29.81,SE,143,2.0,3.0,70,0.00,,,0.00,Wunderground v.1.15,2013-02-19 01:22:00,
2013-02-18 17:28:00,45.1,35.9,29.81,SE,142,2.0,3.0,70,0.00,,,0.00,Wunderground v.1.15,2013-02-19 01:28:00,
2013-02-18 17:34:00,45.1,35.9,29.81,SE,137,2.0,2.0,70,0.00,,,0.00,Wunderground v.1.15,2013-02-19 01:34:00,
2013-02-18 17:40:00,45.0,36.2,29.81,SE,137,1.0,1.0,71,0.00,,,0.00,Wunderground v.1.15,2013-02-19 01:40:00,
2013-02-18 17:46:00,45.0,36.2,29.80,SE,138,2.0,4.0,71,0.00,,,0.00,Wunderground v.1.15,2013-02-19 01:46:00,
2013-02-18 17:52:00,44.9,36.4,29.80,SE,130,2.0,2.0,72,0.00,,,0.00,Wunderground v.1.15,2013-02-19 01:52:00,
2013-02-18 17:58:00,44.9,36.4,29.80,SE,140,3.0,4.0,72,0.00,,,0.00,Wunderground v.1.15,2013-02-19 01:58:00,
2013-02-18 18:04:00,44.8,36.7,29.80,SE,146,2.0,3.0,73,0.00,,,0.00,Wunderground v.1.15,2013-02-19 02:04:00,
2013-02-18 18:10:00,44.7,36.6,29.80,SE,144,3.0,3.0,73,0.00,,,0.00,Wunderground v.1.15,2013-02-19 02:10:00,
2013-02-18 18:16:00,44.6,36.8,29.79,ESE,120,3.0,3.0,74,0.00,,,0.00,Wunderground v.1.15,2013-02-19 02:16:00,
2013-02-18 18:22:00,44.5,36.7,29.79,SSE,154,3.0,3.0,74,0.00,,,0.00,Wunderground v.1.15,2013-02-19 02:22:00,
2013-02-18 18:28:00,44.5,37.4,29.79,SE,138,2.0,5.0,76,0.00,,,0.00,Wunderground v.1.15,2013-02-19 02:28:00,
2013-02-18 18:34:00,44.3,37.5,29.79,ESE,122,3.0,3.0,77,0.00,,,0.00,Wunderground v.1.15,2013-02-19 02:34:00,
2013-02-18 18:42:00,44.1,37.7,29.78,SE,132,2.0,3.0,78,0.00,,,0.00,Wunderground v.1.15,2013-02-19 02:42:00,
2013-02-18 18:48:00,43.9,37.8,29.78,ESE,121,2.0,3.0,79,0.00,,,0.00,Wunderground v.1.15,2013-02-19 02:48:00,
2013-02-18 18:54:00,43.7,37.9,29.78,SE,133,3.0,5.0,80,0.00,,,0.00,Wunderground v.1.15,2013-02-19 02:54:00,
2013-02-18 19:00:00,43.5,37.7,29.78,ESE,123,3.0,4.0,80,0.00,,,0.00,Wunderground v.1.15,2013-02-19 03:00:00,
2013-02-18 19:06:00,43.4,37.6,29.77,SE,131,3.0,5.0,80,0.00,,,0.00,Wunderground v.1.15,2013-02-19 03:06:00,
2013-02-18 19:12:00,43.4,37.6,29.77,ESE,119,4.0,5.0,80,0.00,,,0.00,Wunderground v.1.15,2013-02-19 03:12:00,
2013-02-18 19:18:00,43.4,37.6,29.77,SE,132,3.0,5.0,80,0.00,,,0.00,Wunderground v.1.15,2013-02-19 03:18:00,
2013-02-18 19:24:00,43.4,37.6,29.77,SE,133,1.0,2.0,80,0.00,,,0.00,Wunderground v.1.15,2013-02-19 03:24:00,
2013-02-18 19:30:00,43.3,37.5,29.77,SE,135,2.0,2.0,80,0.00,,,0.00,Wunderground v.1.15,2013-02-19 03:30:00,
2013-02-18 19:36:00,43.3,37.5,29.76,SE,135,1.0,2.0,80,0.00,,,0.00,Wunderground v.1.15,2013-02-19 03:36:00,
2013-02-18 19:42:00,43.3,37.9,29.76,SE,135,0.0,1.0,81,0.00,,,0.00,Wunderground v.1.15,2013-02-19 03:42:00,
2013-02-18 19:48:00,43.2,37.8,29.76,SE,134,0.0,1.0,81,0.00,,,0.00,Wunderground v.1.15,2013-02-19 03:48:00,
2013-02-18 19:54:00,43.2,37.8,29.76,SE,135,0.0,1.0,81,0.00,,,0.00,Wunderground v.1.15,2013-02-19 03:54:00,
2013-02-18 20:00:00,43.1,37.7,29.76,SE,135,0.0,0.0,81,0.00,,,0.00,Wunderground v.1.15,2013-02-19 04:00:00,
2013-02-18 20:06:00,43.0,37.6,29.76,SE,134,1.0,3.0,81,0.00,,,0.00,Wunderground v.1.15,2013-02-19 04:06:00,
2013-02-18 20:12:00,42.9,37.5,29.76,SE,134,2.0,2.0,81,0.00,,,0.00,Wunderground v.1.15,2013-02-19 04:12:00,
2013-02-18 20:18:00,42.9,37.8,29.76,East,97,1.0,4.0,82,0.00,,,0.00,Wunderground v.1.15,2013-02-19 04:18:00,
2013-02-18 20:24:00,42.8,37.7,29.75,ESE,118,2.0,3.0,82,0.00,,,0.00,Wunderground v.1.15,2013-02-19 04:24:00,
2013-02-18 20:30:00,42.7,37.6,29.75,East,89,2.0,3.0,82,0.00,,,0.00,Wunderground v.1.15,2013-02-19 04:30:00,
2013-02-18 20:36:00,42.6,37.8,29.75,East,89,1.0,3.0,83,0.00,,,0.00,Wunderground v.1.15,2013-02-19 04:36:00,
2013-02-18 20:42:00,42.5,37.7,29.75,East,88,1.0,3.0,83,0.00,,,0.00,Wunderground v.1.15,2013-02-19 04:42:00,
2013-02-18 20:48:00,42.4,37.6,29.75,East,87,2.0,3.0,83,0.00,,,0.00,Wunderground v.1.15,2013-02-19 04:48:00,
2013-02-18 20:54:00,42.3,37.8,29.75,East,87,1.0,1.0,84,0.00,,,0.00,Wunderground v.1.15,2013-02-19 04:54:00,
2013-02-18 21:00:00,42.2,37.7,29.75,East,87,1.0,1.0,84,0.00,,,0.00,Wunderground v.1.15,2013-02-19 05:00:00,
2013-02-18 21:02:00,42.2,37.7,29.75,East,87,1.0,1.0,84,0.00,,,0.01,Wunderground v.1.15,2013-02-19 05:02:00,
2013-02-18 21:04:00,42.1,37.9,29.75,East,87,1.0,1.0,85,0.00,,,0.01,Wunderground v.1.15,2013-02-19 05:04:00,
2013-02-18 21:10:00,41.9,37.7,29.74,East,87,1.0,1.0,85,0.00,,,0.01,Wunderground v.1.15,2013-02-19 05:10:00,
2013-02-18 21:16:00,41.8,37.6,29.74,East,87,1.0,1.0,85,0.00,,,0.01,Wunderground v.1.15,2013-02-19 05:16:00,
2013-02-18 21:22:00,41.8,37.9,29.74,East,88,0.0,1.0,86,0.00,,,0.01,Wunderground v.1.15,2013-02-19 05:22:00,
2013-02-18 21:28:00,41.8,37.9,29.74,East,88,1.0,1.0,86,0.00,,,0.01,Wunderground v.1.15,2013-02-19 05:28:00,
2013-02-18 21:34:00,41.8,37.9,29.74,East,88,0.0,1.0,86,0.00,,,0.02,Wunderground v.1.15,2013-02-19 05:34:00,
2013-02-18 21:40:00,41.7,38.1,29.74,East,88,0.0,0.0,87,0.00,,,0.02,Wunderground v.1.15,2013-02-19 05:40:00,
2013-02-18 21:46:00,41.6,38.0,29.74,East,88,0.0,1.0,87,0.05,,,0.03,Wunderground v.1.15,2013-02-19 05:46:00,
2013-02-18 21:52:00,41.5,37.9,29.74,East,88,0.0,2.0,87,0.05,,,0.03,Wunderground v.1.15,2013-02-19 05:52:00,
2013-02-18 21:58:00,41.5,37.9,29.73,East,88,0.0,2.0,87,0.04,,,0.03,Wunderground v.1.15,2013-02-19 05:58:00,
2013-02-18 22:04:00,41.4,37.8,29.73,ESE,117,1.0,3.0,87,0.00,,,0.03,Wunderground v.1.15,2013-02-19 06:04:00,
2013-02-18 22:10:00,41.4,37.8,29.73,SSE,168,3.0,3.0,87,0.00,,,0.03,Wunderground v.1.15,2013-02-19 06:10:00,
2013-02-18 22:16:00,41.4,37.8,29.73,SSE,164,3.0,3.0,87,0.04,,,0.04,Wunderground v.1.15,2013-02-19 06:16:00,
2013-02-18 22:22:00,41.4,38.1,29.73,SSE,164,2.0,5.0,88,0.04,,,0.04,Wunderground v.1.15,2013-02-19 06:22:00,
2013-02-18 22:28:00,41.4,38.1,29.73,SSE,160,2.0,5.0,88,0.04,,,0.04,Wunderground v.1.15,2013-02-19 06:28:00,
2013-02-18 22:34:00,41.3,38.0,29.73,SSE,156,1.0,2.0,88,0.04,,,0.05,Wunderground v.1.15,2013-02-19 06:34:00,
2013-02-18 22:40:00,41.3,38.0,29.73,SSE,157,1.0,1.0,88,0.06,,,0.06,Wunderground v.1.15,2013-02-19 06:40:00,
2013-02-18 22:46:00,41.3,38.0,29.72,SSE,148,1.0,2.0,88,0.11,,,0.07,Wunderground v.1.15,2013-02-19 06:46:00,
2013-02-18 22:52:00,41.2,38.2,29.72,SSE,150,1.0,2.0,89,0.09,,,0.07,Wunderground v.1.15,2013-02-19 06:52:00,
2013-02-18 22:58:00,41.1,38.1,29.72,SSE,149,1.0,2.0,89,0.05,,,0.07,Wunderground v.1.15,2013-02-19 06:58:00,
2013-02-18 23:04:00,41.1,38.1,29.72,SSE,150,1.0,1.0,89,0.00,,,0.07,Wunderground v.1.15,2013-02-19 07:04:00,
2013-02-18 23:10:00,41.1,38.1,29.71,SSE,149,0.0,0.0,89,0.00,,,0.07,Wunderground v.1.15,2013-02-19 07:10:00,
2013-02-18 23:16:00,41.1,38.1,29.71,SSE,150,0.0,0.0,89,0.00,,,0.07,Wunderground v.1.15,2013-02-19 07:16:00,
2013-02-18 23:22:00,41.1,38.1,29.71,SSE,150,0.0,0.0,89,0.00,,,0.07,Wunderground v.1.15,2013-02-19 07:22:00,
2013-02-18 23:28:00,41.1,38.1,29.70,SSE,150,0.0,0.0,89,0.00,,,0.07,Wunderground v.1.15,2013-02-19 07:28:00,
2013-02-18 23:34:00,41.1,38.1,29.70,SSE,150,0.0,0.0,89,0.00,,,0.07,Wunderground v.1.15,2013-02-19 07:34:00,
2013-02-18 23:40:00,41.1,38.4,29.70,SSE,150,0.0,0.0,90,0.00,,,0.07,Wunderground v.1.15,2013-02-19 07:40:00,
2013-02-18 23:46:00,41.1,38.4,29.70,SSE,150,0.0,0.0,90,0.00,,,0.07,Wunderground v.1.15,2013-02-19 07:46:00,
2013-02-18 23:52:00,41.1,38.4,29.70,SSE,149,0.0,0.0,90,0.00,,,0.07,Wunderground v.1.15,2013-02-19 07:52:00,
2013-02-18 23:58:00,41.1,38.4,29.69,SSE,150,0.0,0.0,90,0.00,,,0.07,Wunderground v.1.15,2013-02-19 07:58:00,